Location: ????????
(55.1591°N, 39.1782°E)
Time: 09:55:38
(UTC+00:00)

NOAA 11 - Pass Details

Date: 14 April 2024
Orbit: 833 x 848 km, 98.5° (Epoch: 27 May)

Event Time Altitude Azimuth Distance (km) Brightness Sun altitude
Rises 01:17:33 0° 15° (NNE) 3,398 8.1 -9.1°
Reaches altitude 10° 01:19:55 10° 16° (NNE) 2,461 7.4 -8.8°
Maximum altitude 01:25:24 88° 288° (WNW) 847 4.2 -8.2°
Drops below altitude 10° 01:30:51 10° 199° (SSW) 2,453 6.2 -7.5°
Sets 01:33:12 0° 199° (SSW) 3,386 6.9 -7.2°
